User: anonymous   Login
Location: Bauerbach
(50.4985°N, 10.3912°E)
Time: 04:18:54
(UTC+00:00)
Language:

Cosmos 1515 Rocket - Orbit

View from above orbital plane
View from above orbital plane
View from above satellite
View from above satellite

Ground track
Ground track

The orbit is defined by the following mean orbital elements,

1 14552U          26066.99656802 +.00000000 +00000-0 +77632-4 0 00004
2 14552  82.5260 331.2506 0018105  85.3280 275.0004 14.85859659    01
Epoch (UTC): 07 March 2026 23:55:03
Eccentricity: 0.0018105
inclination: 82.5260°
perigee height: 598 km
apogee height: 624 km
right ascension of ascending node: 331.2506°
argument of perigee: 85.3280°
revolutions per day: 14.85859659
mean anomaly at epoch: 275.0004°

The dashed part of the orbit path shows where the satellite is in the earth's shadow,  

DLR